STARLINK J

Last updated on Sun Jun 09 2024 00:02:04 GMT+0000 (Coordinated Universal Time)

1 59930U 24106J 24160.58335648 -.00950349 27474-3 -27938-2 0 9994 2 59930 43.0015 19.8642 0001745 263.4827 39.5786 15.91756242 2350

Satellite not in orbit